TimeCST,TemperatureF,Dew PointF,Humidity,Sea Level PressureIn,VisibilityMPH,Wind Direction,Wind SpeedMPH,Gust SpeedMPH,PrecipitationIn,Events,Conditions,WindDirDegrees,DateUTC
12:07 AM,57.2,55.4,94,30.03,0.2,Calm,Calm,-,N/A,Fog,Fog,0,2013-02-06 06:07:00
12:21 AM,57.2,57.2,100,30.03,0.8,Calm,Calm,-,N/A,,Overcast,0,2013-02-06 06:21:00
12:31 AM,59.0,57.2,94,30.03,1.2,North,4.6,-,N/A,,Overcast,10,2013-02-06 06:31:00
12:38 AM,59.0,57.2,94,30.02,3.0,NE,5.8,-,N/A,,Overcast,50,2013-02-06 06:38:00
12:53 AM,57.2,57.2,100,30.02,3.0,NE,5.8,-,N/A,,Scattered Clouds,40,2013-02-06 06:53:00
1:17 AM,59.0,57.2,94,30.03,4.0,NE,6.9,-,N/A,,Scattered Clouds,50,2013-02-06 07:17:00
1:26 AM,60.8,57.2,88,30.03,4.0,ENE,8.1,-,N/A,,Mostly Cloudy,60,2013-02-06 07:26:00
1:53 AM,60.1,59.0,96,30.05,4.0,ENE,5.8,-,N/A,,Overcast,60,2013-02-06 07:53:00
2:13 AM,60.8,59.0,94,30.02,1.8,ENE,5.8,-,N/A,,Overcast,60,2013-02-06 08:13:00
2:24 AM,60.8,59.0,94,30.03,0.5,ENE,5.8,-,N/A,Fog,Fog,60,2013-02-06 08:24:00
2:53 AM,60.1,57.9,93,30.06,0.5,ENE,8.1,-,N/A,Fog,Fog,70,2013-02-06 08:53:00
3:09 AM,60.8,57.2,88,30.03,0.2,ENE,5.8,-,N/A,Fog,Fog,60,2013-02-06 09:09:00
3:25 AM,60.8,57.2,88,30.02,0.5,East,6.9,-,N/A,Fog,Fog,80,2013-02-06 09:25:00
3:36 AM,59.0,57.2,94,30.02,2.0,East,6.9,-,N/A,,Overcast,80,2013-02-06 09:36:00
3:45 AM,59.0,57.2,94,30.03,4.0,ENE,4.6,-,N/A,,Mostly Cloudy,70,2013-02-06 09:45:00
3:53 AM,57.9,57.0,97,30.05,4.0,ENE,4.6,-,N/A,,Scattered Clouds,60,2013-02-06 09:53:00
4:53 AM,57.0,55.9,96,30.07,4.0,NE,6.9,-,N/A,,Clear,50,2013-02-06 10:53:00
5:53 AM,57.0,55.9,96,30.08,5.0,ENE,4.6,-,N/A,,Clear,70,2013-02-06 11:53:00
6:53 AM,57.9,55.9,93,30.09,4.0,ENE,4.6,-,N/A,,Clear,60,2013-02-06 12:53:00
7:02 AM,57.2,55.4,94,30.06,3.0,ENE,8.1,-,N/A,,Partly Cloudy,60,2013-02-06 13:02:00
7:53 AM,57.9,55.9,93,30.08,4.0,ENE,8.1,-,N/A,,Partly Cloudy,70,2013-02-06 13:53:00
8:53 AM,60.1,57.0,90,30.09,5.0,East,6.9,-,0.00,Rain,Light Rain,80,2013-02-06 14:53:00
9:43 AM,60.8,57.2,88,30.09,3.0,East,4.6,-,0.00,Rain,Light Rain,100,2013-02-06 15:43:00
9:53 AM,61.0,57.9,90,30.13,3.0,SE,4.6,-,0.01,Rain,Light Rain,130,2013-02-06 15:53:00
10:53 AM,62.1,60.1,93,30.09,5.0,East,5.8,-,0.00,,Overcast,80,2013-02-06 16:53:00
11:34 AM,64.4,60.8,88,30.05,7.0,East,8.1,-,N/A,,Overcast,80,2013-02-06 17:34:00
11:53 AM,64.0,61.0,90,30.07,5.0,East,5.8,-,0.01,Rain,Light Rain,80,2013-02-06 17:53:00
12:53 PM,64.9,61.0,87,30.04,10.0,East,8.1,-,0.00,,Overcast,90,2013-02-06 18:53:00
1:33 PM,66.2,60.8,83,29.99,10.0,ESE,10.4,-,N/A,,Mostly Cloudy,110,2013-02-06 19:33:00
1:53 PM,66.0,61.0,84,29.99,10.0,East,10.4,-,N/A,,Mostly Cloudy,100,2013-02-06 19:53:00
2:53 PM,64.9,62.1,90,30.02,7.0,East,4.6,-,0.00,Rain,Light Rain,90,2013-02-06 20:53:00
3:00 PM,64.4,62.6,94,30.00,7.0,East,3.5,-,0.01,Rain,Light Rain,90,2013-02-06 21:00:00
3:50 PM,64.4,62.6,94,29.98,2.5,ENE,6.9,-,0.09,Rain,Rain,60,2013-02-06 21:50:00
3:53 PM,64.0,62.1,93,30.00,2.5,ENE,6.9,-,0.10,Rain,Rain,60,2013-02-06 21:53:00
4:02 PM,64.4,62.6,94,29.98,2.5,ENE,4.6,-,0.01,Rain,Rain,70,2013-02-06 22:02:00
4:14 PM,64.4,60.8,88,29.98,5.0,East,5.8,-,0.03,Rain,Light Rain,90,2013-02-06 22:14:00
4:38 PM,64.4,60.8,88,29.99,4.0,ENE,5.8,-,0.06,Rain,Rain,70,2013-02-06 22:38:00
4:53 PM,64.0,61.0,90,30.01,4.0,East,4.6,-,0.09,Rain,Rain,80,2013-02-06 22:53:00
5:06 PM,62.6,60.8,94,29.98,3.0,NE,5.8,-,0.03,Rain,Rain,40,2013-02-06 23:06:00
5:21 PM,62.6,60.8,94,29.99,4.0,ENE,5.8,-,0.07,Rain,Rain,70,2013-02-06 23:21:00
5:36 PM,62.6,60.8,94,29.99,2.5,ESE,6.9,-,0.16,Rain,Heavy Rain,110,2013-02-06 23:36:00
5:53 PM,62.1,60.1,93,29.99,2.5,East,4.6,-,0.26,Rain,Heavy Rain,90,2013-02-06 23:53:00
6:07 PM,62.6,60.8,94,29.96,3.0,East,8.1,-,0.06,Rain,Rain,90,2013-02-07 00:07:00
6:17 PM,62.6,60.8,94,29.97,4.0,East,9.2,-,0.09,Rain,Rain,100,2013-02-07 00:17:00
6:34 PM,62.6,60.8,94,29.95,4.0,East,9.2,-,0.12,Rain,Rain,90,2013-02-07 00:34:00
6:53 PM,63.0,60.1,90,29.97,4.0,East,10.4,18.4,0.15,Rain,Light Rain,90,2013-02-07 00:53:00
7:44 PM,62.6,60.8,94,29.95,5.0,East,12.7,-,0.02,Rain,Rain,90,2013-02-07 01:44:00
7:53 PM,63.0,60.1,90,29.98,4.0,East,12.7,-,0.04,Rain,Rain,90,2013-02-07 01:53:00
8:53 PM,62.1,59.0,90,29.98,4.0,East,13.8,20.7,0.05,Rain,Light Rain,100,2013-02-07 02:53:00
9:53 PM,61.0,59.0,93,29.97,4.0,ESE,16.1,-,0.06,Rain,Rain,110,2013-02-07 03:53:00
10:53 PM,61.0,57.9,90,29.95,10.0,East,11.5,-,0.05,Rain,Light Rain,90,2013-02-07 04:53:00
11:53 PM,61.0,57.0,87,29.92,10.0,East,12.7,-,0.02,,Mostly Cloudy,90,2013-02-07 05:53:00